Rbgn^[z[y[W
メイン
   新天体発見情報
     Comet C/2018 E2 (Barros)
投稿するにはまず登録を

スレッド表示 | 新しいものから 前のトピック | 次のトピック | 下へ
投稿者 スレッド
佐藤裕久
投稿日時: 2018-3-23 22:09
モデレータ
登録日: 2005-6-12
居住地: 日本
投稿: 2505
オンライン
Comet C/2018 E2 (Barros)

Cristovao Jacques (Belo Horizonte, MG, ブラジル) の通報によると、Joao Barrosは、3月12.93日UT、
Jacques, E. Pimentelと Barrosが、OliveiraにあるSONEAR 天文台の0.45-m f/2.9 反射望遠鏡で得た
CCD画像から彗星を発見した。
この彗星は60秒の画像3枚のスタックで、拡散した15"のコマがある。
小惑星センターのNEOCPとPCCP webpageに公表後、 T. LindeとR. Holmes (Cerro Tololo, 0.61-m f/6.5
Dall-Kirkham アストログラフ, 3月13.01-13.02日UT, 大きく、5"の明るいコマがある)や佐藤英貴氏
(東京都文京区, iTelescope天文台,3月14.4日UT, 60秒露出8枚のスタック, 0.51-m f/6.8 アストログラフ,
 Siding Spring, 遠隔操作:強い集光した15"のコマとp.a.170°に1'.5伸びたかすかな尾がある。
8".2の円形範囲で測定したw-バンド全光度は17.6等であった)らCCD位置観測者によって彗星状と観測さ
れた。

発見位置は次のとおり、

     2018 UT             R.A. (2000) Decl.       Mag.   Observers
     Mar. 12.92654    4 33 22.97   -43 32 03.5   19.4   Jacques et al.
          12.92953    4 33 23.16   -43 31 59.5   19.2     "
          12.93224    4 33 23.02   -43 31 55.6   19.4     "
          12.93418    4 33 23.15   -43 31 53.9   19.4     "
          12.93897    4 33 23.05   -43 31 46.0   19.5     "
          12.94095    4 33 23.20   -43 31 42.4   19.3     "
          12.94393    4 33 23.20   -43 31 39.6   19.3     "
          12.94659    4 33 23.19   -43 31 35.8   19.3     "
          12.95356    4 33 23.27   -43 31 26.2   19.3     "
          12.99805    4 33 23.55   -43 30 23.9   19.3     "
          13.00039    4 33 23.73   -43 30 20.9   19.3     "
          13.00273    4 33 23.76   -43 30 17.4   19.3     "

放物線軌道要素と位置推算表は次のとおり、

Orbital elements:
    C/2018 E2 (Barros)
T 2017 Nov. 25.03269 TT                                 MPCW
q   3.8516651            (2000.0)            P               Q
                   Peri.  271.91939     -0.11560282     +0.40343079
                   Node    66.46354     +0.47331195     +0.82576366
e   1.0            Incl.   98.09187     -0.87327647     +0.39415475
From 36 observations 2018 Mar. 12-16.

Ephemeris:
    C/2018 E2 (Barros)
Date    TT    R. A. (2000) Decl.     Delta      r     Elong.  Phase   m1
2018 02 14    04 38 59.5 -54 33 16   3.8534  3.9163    86.3    14.6  19.4
...
2018 03 01    04 33 13.3 -48 17 56   3.9560  3.9421    82.0    14.4  19.4
...
2018 03 09    04 32 58.1 -45 04 20   4.0244  3.9575    79.0    14.3  19.5
...
2018 03 15    04 33 43.8 -42 44 12   4.0807  3.9698    76.6    14.1  19.5
2018 03 16    04 33 55.5 -42 21 21   4.0905  3.9719    76.2    14.1  19.5
2018 03 17    04 34 08.3 -41 58 38   4.1003  3.9740    75.7    14.0  19.6
...
2018 03 23    04 35 46.0 -39 45 42   4.1611  3.9872    73.1    13.8  19.6
...
2018 03 31    04 38 44.0 -36 57 55   4.2455  4.0057    69.5    13.5  19.7
...
2018 04 15    04 46 06.7 -32 14 32   4.4084  4.0434    62.4    12.7  19.8

(CBET 4495、MPEC 2018-F11)

スレッド表示 | 新しいものから 前のトピック | 次のトピック | トップ

投稿するにはまず登録を
 
© 1999 Tsutomu Seki.